{"data":{"norad_id":66691,"intl_designator":"2025-276AB","name":"TRANSPORTER-15 OBJECT AB","alt_names":[],"object_type":"PAYLOAD","status":"ACTIVE","operator":null,"country":"TBD","launch_date":"2025-11-28","launch_site_code":"AFWTR","launch_vehicle":null,"mission":null,"orbit_class":"UNKNOWN","rcs_meters":null,"size_class":null,"mass_kg":null,"dimensions":null,"purposes":[],"wikipedia_slug":null,"has_3d_model":false,"image_url":null,"decayed_at":null,"tle_current":{"epoch":"2026-09-20T10:24:12.289248Z","epoch_age_seconds":126755,"freshness":"FRESH","line1":"1 66691U 25276AB  26263.43347557  .00005618  00000+0  24701-3 0  9993","line2":"2 66691  97.4121 335.7563 0005185  41.1806 318.9821 15.22273832 44910","mean_motion":15.22273832,"eccentricity":0.0005185,"inclination_deg":97.4121,"raan_deg":335.7563,"arg_perigee_deg":41.1806,"mean_anomaly_deg":318.9821,"bstar":0.00024701,"rev_number":4491,"period_min":94.595332963721,"perigee_km":495.41801907398,"apogee_km":502.54959335002,"semimajor_km":6877.120806212,"source":"CELESTRAK","updated_at":"2026-09-21T09:00:16.126684Z"}}}